| time (UTC) | temp F | wind direction | speed MPH | gust MPH | rain 1hr in | rain 24hr in | rain mn in | humidity % | barometer mb |
| 20260504050523 | 51 | 0 | 0.0 | 1.0 | 0.00 | 0.00 | 0.00 | 50 | 1018.0 |
| 20260504045523 | 51 | 0 | 0.0 | 1.0 | 0.00 | 0.00 | 0.00 | 51 | 1018.0 |
| 20260504045023 | 51 | 0 | 0.0 | 0.0 | 0.00 | 0.00 | 0.00 | 52 | 1017.8 |
| 20260504044539 | 51 | 0 | 0.0 | 0.0 | 0.00 | 0.00 | 0.00 | 50 | 1017.7 |
| 20260504044028 | 51 | 0 | 0.0 | 0.0 | 0.00 | 0.00 | 0.00 | 50 | 1017.7 |
| 20260504043524 | 51 | 0 | 0.0 | 0.0 | 0.00 | 0.00 | 0.00 | 49 | 1017.6 |
| 20260504043038 | 52 | 0 | 0.0 | 0.0 | 0.00 | 0.00 | 0.00 | 49 | 1017.7 |
| 20260504042525 | 52 | 0 | 0.0 | 0.0 | 0.00 | 0.00 | 0.00 | 49 | 1017.6 |
| 20260504042024 | 53 | 0 | 0.0 | 0.0 | 0.00 | 0.00 | 0.00 | 46 | 1017.7 |
| 20260504041538 | 53 | 0 | 0.0 | 1.0 | 0.00 | 0.00 | 0.00 | 46 | 1017.9 |
| 20260504041024 | 53 | 0 | 0.0 | 1.0 | 0.00 | 0.00 | 0.00 | 46 | 1017.9 |
| 20260504040524 | 53 | 0 | 0.0 | 1.0 | 0.00 | 0.00 | 0.00 | 46 | 1017.9 |
| 20260504040038 | 53 | 0 | 0.0 | 0.0 | 0.00 | 0.00 | 0.00 | 45 | 1017.9 |
| 20260504035524 | 53 | 0 | 0.0 | 0.0 | 0.00 | 0.00 | 0.00 | 45 | 1017.9 |
| 20260504035023 | 53 | 0 | 0.0 | 0.0 | 0.00 | 0.00 | 0.00 | 45 | 1017.8 |
| 20260504034542 | 54 | 0 | 0.0 | 0.0 | 0.00 | 0.00 | 0.00 | 45 | 1017.9 |
| 20260504034028 | 54 | 0 | 0.0 | 0.0 | 0.00 | 0.00 | 0.00 | 44 | 1017.9 |
| 20260504033524 | 54 | 0 | 0.0 | 0.0 | 0.00 | 0.00 | 0.00 | 44 | 1017.9 |
| 20260504033040 | 54 | 0 | 0.0 | 0.0 | 0.00 | 0.00 | 0.00 | 43 | 1017.8 |
| 20260504032524 | 55 | 0 | 0.0 | 1.0 | 0.00 | 0.00 | 0.00 | 43 | 1017.9 |
| 20260504032024 | 55 | 0 | 0.0 | 1.0 | 0.00 | 0.00 | 0.00 | 42 | 1017.8 |
| 20260504031539 | 55 | 0 | 0.0 | 1.0 | 0.00 | 0.00 | 0.00 | 42 | 1017.8 |
| 20260504031023 | 55 | 0 | 0.0 | 1.0 | 0.00 | 0.00 | 0.00 | 41 | 1017.8 |
| 20260504030523 | 56 | 0 | 0.0 | 1.0 | 0.00 | 0.00 | 0.00 | 41 | 1017.7 |
| 20260504030042 | 56 | 0 | 0.0 | 1.0 | 0.00 | 0.00 | 0.00 | 41 | 1017.7 |
| 20260504025523 | 56 | 0 | 0.0 | 1.0 | 0.00 | 0.00 | 0.00 | 41 | 1017.6 |
| 20260504025023 | 56 | 0 | 0.0 | 1.0 | 0.00 | 0.00 | 0.00 | 41 | 1017.7 |
| 20260504024535 | 56 | 0 | 0.0 | 1.0 | 0.00 | 0.00 | 0.00 | 41 | 1017.6 |
| 20260504024023 | 56 | 0 | 0.0 | 1.0 | 0.00 | 0.00 | 0.00 | 41 | 1017.6 |
| 20260504023523 | 56 | 0 | 0.0 | 1.0 | 0.00 | 0.00 | 0.00 | 40 | 1017.6 |
| 20260504023035 | 57 | 0 | 0.0 | 1.0 | 0.00 | 0.00 | 0.00 | 40 | 1017.4 |
| 20260504022528 | 57 | 255 | 0.0 | 1.0 | 0.00 | 0.00 | 0.00 | 40 | 1017.4 |
| 20260504022024 | 57 | 0 | 0.0 | 1.0 | 0.00 | 0.00 | 0.00 | 40 | 1017.3 |
| 20260504021540 | 57 | 191 | 0.0 | 0.0 | 0.00 | 0.00 | 0.00 | 40 | 1017.3 |
| 20260504021022 | 57 | 0 | 0.0 | 0.0 | 0.00 | 0.00 | 0.00 | 40 | 1017.3 |
| 20260504020523 | 57 | 0 | 0.0 | 0.0 | 0.00 | 0.00 | 0.00 | 41 | 1017.2 |
| 20260504020038 | 57 | 0 | 0.0 | 0.0 | 0.00 | 0.00 | 0.00 | 41 | 1017.3 |
| 20260504015524 | 57 | 0 | 0.0 | 0.0 | 0.00 | 0.00 | 0.00 | 41 | 1017.1 |
| 20260504015030 | 57 | 0 | 0.0 | 0.0 | 0.00 | 0.00 | 0.00 | 42 | 1017.1 |
| 20260504014552 | 57 | 0 | 0.0 | 0.0 | 0.00 | 0.00 | 0.00 | 41 | 1017.0 |
| 20260504014027 | 57 | 0 | 0.0 | 0.0 | 0.00 | 0.00 | 0.00 | 40 | 1017.0 |
| 20260504013523 | 58 | 0 | 0.0 | 0.0 | 0.00 | 0.00 | 0.00 | 40 | 1017.0 |
| 20260504013041 | 58 | 0 | 0.0 | 0.0 | 0.00 | 0.00 | 0.00 | 40 | 1016.8 |
| 20260504012525 | 58 | 0 | 0.0 | 0.0 | 0.00 | 0.00 | 0.00 | 40 | 1016.8 |
| 20260504012023 | 58 | 0 | 0.0 | 0.0 | 0.00 | 0.00 | 0.00 | 40 | 1016.7 |
| 20260504011536 | 59 | 0 | 0.0 | 0.0 | 0.00 | 0.00 | 0.00 | 40 | 1016.7 |
| 20260504011022 | 59 | 183 | 0.0 | 0.0 | 0.00 | 0.00 | 0.00 | 39 | 1016.7 |
| 20260504010527 | 59 | 0 | 0.0 | 0.0 | 0.00 | 0.00 | 0.00 | 39 | 1016.8 |
| 20260504010041 | 60 | 0 | 0.0 | 0.0 | 0.00 | 0.00 | 0.00 | 38 | 1016.7 |
| 20260504005523 | 60 | 0 | 0.0 | 2.0 | 0.00 | 0.00 | 0.00 | 37 | 1016.7 |
| 20260504005026 | 61 | 0 | 0.0 | 2.0 | 0.00 | 0.00 | 0.00 | 36 | 1016.7 |
| 20260504004540 | 61 | 0 | 0.0 | 1.0 | 0.00 | 0.00 | 0.00 | 36 | 1016.7 |
| 20260504004023 | 61 | 135 | 0.0 | 1.0 | 0.00 | 0.00 | 0.00 | 35 | 1016.6 |
| 20260504003524 | 62 | 136 | 0.0 | 1.0 | 0.00 | 0.00 | 0.00 | 35 | 1016.6 |
| 20260504003041 | 62 | 118 | 0.0 | 1.0 | 0.00 | 0.00 | 0.00 | 34 | 1016.4 |
| 20260504002523 | 63 | 119 | 0.0 | 1.0 | 0.00 | 0.00 | 0.00 | 34 | 1016.4 |
| 20260504002023 | 63 | 117 | 0.0 | 1.0 | 0.00 | 0.00 | 0.00 | 33 | 1016.3 |
| 20260504001546 | 63 | 128 | 0.0 | 1.0 | 0.00 | 0.00 | 0.00 | 33 | 1016.3 |
| 20260504001023 | 64 | 129 | 0.0 | 1.0 | 0.00 | 0.00 | 0.00 | 32 | 1016.1 |
| 20260504000522 | 65 | 129 | 0.0 | 1.0 | 0.00 | 0.00 | 0.00 | 31 | 1016.2 |
| 20260504000043 | 65 | 273 | 0.0 | 1.0 | 0.00 | 0.00 | 0.00 | 30 | 1016.1 |
| 20260503235523 | 66 | 273 | 0.0 | 1.0 | 0.00 | 0.00 | 0.00 | 30 | 1016.1 |
| 20260503235024 | 67 | 0 | 0.0 | 3.0 | 0.00 | 0.00 | 0.00 | 28 | 1016.1 |
| 20260503234541 | 67 | 150 | 1.0 | 3.0 | 0.00 | 0.00 | 0.00 | 28 | 1016.0 |
| 20260503234024 | 66 | 215 | 1.0 | 5.0 | 0.00 | 0.00 | 0.00 | 28 | 1016.0 |
| 20260503233523 | 66 | 103 | 0.0 | 5.0 | 0.00 | 0.00 | 0.00 | 28 | 1016.1 |
| 20260503233045 | 67 | 82 | 1.0 | 5.0 | 0.00 | 0.00 | 0.00 | 27 | 1016.1 |
| 20260503232523 | 67 | 111 | 0.0 | 3.0 | 0.00 | 0.00 | 0.00 | 27 | 1016.0 |
| 20260503232023 | 67 | 109 | 1.0 | 4.0 | 0.00 | 0.00 | 0.00 | 26 | 1016.1 |
| 20260503231543 | 67 | 237 | 1.0 | 4.0 | 0.00 | 0.00 | 0.00 | 25 | 1016.0 |
| 20260503231025 | 68 | 148 | 0.0 | 4.0 | 0.00 | 0.00 | 0.00 | 25 | 1016.0 |
| 20260503230527 | 68 | 0 | 0.0 | 1.0 | 0.00 | 0.00 | 0.00 | 26 | 1016.1 |
| 20260503230037 | 68 | 152 | 0.0 | 2.0 | 0.00 | 0.00 | 0.00 | 25 | 1016.1 |
| 20260503225525 | 68 | 0 | 0.0 | 4.0 | 0.00 | 0.00 | 0.00 | 24 | 1016.2 |
| 20260503225024 | 69 | 0 | 1.0 | 4.0 | 0.00 | 0.00 | 0.00 | 23 | 1016.1 |
| 20260503224540 | 69 | 93 | 1.0 | 3.0 | 0.00 | 0.00 | 0.00 | 23 | 1016.1 |
| 20260503224028 | 70 | 228 | 1.0 | 3.0 | 0.00 | 0.00 | 0.00 | 22 | 1016.1 |
| 20260503223523 | 70 | 146 | 0.0 | 6.0 | 0.00 | 0.00 | 0.00 | 23 | 1016.1 |
| 20260503223036 | 70 | 129 | 1.0 | 6.0 | 0.00 | 0.00 | 0.00 | 23 | 1016.2 |
| 20260503222523 | 70 | 0 | 0.0 | 3.0 | 0.00 | 0.00 | 0.00 | 21 | 1016.2 |
| 20260503222023 | 71 | 278 | 1.0 | 6.0 | 0.00 | 0.00 | 0.00 | 21 | 1016.2 |
| 20260503221549 | 72 | 131 | 1.0 | 6.0 | 0.00 | 0.00 | 0.00 | 20 | 1016.1 |
| 20260503221024 | 73 | 121 | 1.0 | 6.0 | 0.00 | 0.00 | 0.00 | 20 | 1016.1 |
| 20260503220524 | 73 | 166 | 1.0 | 6.0 | 0.00 | 0.00 | 0.00 | 20 | 1016.2 |
| 20260503220040 | 73 | 149 | 1.0 | 5.0 | 0.00 | 0.00 | 0.00 | 19 | 1016.2 |
| 20260503215523 | 73 | 179 | 1.0 | 4.0 | 0.00 | 0.00 | 0.00 | 21 | 1016.2 |
| 20260503215023 | 73 | 259 | 0.0 | 4.0 | 0.00 | 0.00 | 0.00 | 22 | 1016.3 |
| 20260503214537 | 72 | 297 | 0.0 | 3.0 | 0.00 | 0.00 | 0.00 | 21 | 1016.4 |
| 20260503214026 | 71 | 297 | 0.0 | 5.0 | 0.00 | 0.00 | 0.00 | 21 | 1016.4 |
| 20260503213524 | 71 | 0 | 0.0 | 8.0 | 0.00 | 0.00 | 0.00 | 22 | 1016.3 |
| 20260503213037 | 70 | 142 | 1.0 | 8.0 | 0.00 | 0.00 | 0.00 | 25 | 1016.4 |
| 20260503212523 | 70 | 115 | 2.0 | 6.0 | 0.00 | 0.00 | 0.00 | 23 | 1016.5 |
| 20260503212023 | 71 | 286 | 0.0 | 5.0 | 0.00 | 0.00 | 0.00 | 23 | 1016.6 |
| 20260503211536 | 70 | 161 | 0.0 | 5.0 | 0.00 | 0.00 | 0.00 | 24 | 1016.6 |
| 20260503211024 | 70 | 149 | 2.0 | 5.0 | 0.00 | 0.00 | 0.00 | 23 | 1016.6 |
| 20260503210525 | 70 | 129 | 0.0 | 6.0 | 0.00 | 0.00 | 0.00 | 25 | 1016.7 |
| 20260503210050 | 70 | 141 | 1.0 | 6.0 | 0.00 | 0.00 | 0.00 | 24 | 1016.7 |
| 20260503205526 | 70 | 146 | 0.0 | 3.0 | 0.00 | 0.00 | 0.00 | 23 | 1016.7 |
| 20260503205024 | 70 | 51 | 1.0 | 3.0 | 0.00 | 0.00 | 0.00 | 22 | 1016.8 |
| 20260503204551 | 70 | 272 | 1.0 | 3.0 | 0.00 | 0.00 | 0.00 | 22 | 1016.8 |
| 20260503204025 | 71 | 120 | 1.0 | 5.0 | 0.00 | 0.00 | 0.00 | 23 | 1017.0 |
| 20260503203524 | 70 | 181 | 2.0 | 11.0 | 0.00 | 0.00 | 0.00 | 24 | 1017.0 |
| 20260503203038 | 70 | 146 | 1.0 | 11.0 | 0.00 | 0.00 | 0.00 | 24 | 1017.2 |
| 20260503202523 | 70 | 98 | 6.0 | 11.0 | 0.00 | 0.00 | 0.00 | 24 | 1017.1 |
| 20260503202025 | 73 | 172 | 1.0 | 5.0 | 0.00 | 0.00 | 0.00 | 22 | 1017.3 |
| 20260503201538 | 72 | 270 | 1.0 | 5.0 | 0.00 | 0.00 | 0.00 | 24 | 1017.5 |
| 20260503201024 | 72 | 97 | 1.0 | 8.0 | 0.00 | 0.00 | 0.00 | 25 | 1017.6 |
| 20260503200524 | 72 | 99 | 1.0 | 8.0 | 0.00 | 0.00 | 0.00 | 23 | 1017.7 |
| 20260503200044 | 72 | 143 | 2.0 | 8.0 | 0.00 | 0.00 | 0.00 | 21 | 1017.7 |
| 20260503195523 | 73 | 220 | 0.0 | 5.0 | 0.00 | 0.00 | 0.00 | 23 | 1017.9 |
| 20260503195024 | 72 | 71 | 1.0 | 4.0 | 0.00 | 0.00 | 0.00 | 23 | 1018.0 |
| 20260503194540 | 72 | 161 | 1.0 | 8.0 | 0.00 | 0.00 | 0.00 | 24 | 1018.1 |
| 20260503194024 | 72 | 259 | 2.0 | 8.0 | 0.00 | 0.00 | 0.00 | 24 | 1018.3 |
| 20260503193524 | 72 | 257 | 1.0 | 2.0 | 0.00 | 0.00 | 0.00 | 21 | 1018.4 |
| 20260503193039 | 72 | 270 | 1.0 | 4.0 | 0.00 | 0.00 | 0.00 | 22 | 1018.5 |
| 20260503192523 | 72 | 141 | 1.0 | 5.0 | 0.00 | 0.00 | 0.00 | 23 | 1018.6 |
| 20260503192027 | 72 | 61 | 1.0 | 5.0 | 0.00 | 0.00 | 0.00 | 22 | 1018.7 |
| 20260503191538 | 72 | 148 | 2.0 | 7.0 | 0.00 | 0.00 | 0.00 | 22 | 1018.8 |
| 20260503191027 | 72 | 257 | 0.0 | 7.0 | 0.00 | 0.00 | 0.00 | 22 | 1018.8 |
| 20260503190524 | 72 | 84 | 1.0 | 7.0 | 0.00 | 0.00 | 0.00 | 22 | 1018.9 |
| 20260503190045 | 72 | 122 | 1.0 | 4.0 | 0.00 | 0.00 | 0.00 | 24 | 1019.0 |
| 20260503185524 | 71 | 27 | 1.0 | 4.0 | 0.00 | 0.00 | 0.00 | 24 | 1019.1 |
| 20260503185028 | 72 | 288 | 0.0 | 4.0 | 0.00 | 0.00 | 0.00 | 23 | 1019.2 |
| 20260503184537 | 71 | 276 | 1.0 | 4.0 | 0.00 | 0.00 | 0.00 | 22 | 1019.2 |
| 20260503184024 | 70 | 293 | 1.0 | 6.0 | 0.00 | 0.00 | 0.00 | 24 | 1019.4 |
| 20260503183523 | 70 | 167 | 1.0 | 6.0 | 0.00 | 0.00 | 0.00 | 25 | 1019.4 |
| 20260503183045 | 70 | 122 | 2.0 | 6.0 | 0.00 | 0.00 | 0.00 | 24 | 1019.4 |
| 20260503182525 | 70 | 297 | 2.0 | 6.0 | 0.00 | 0.00 | 0.00 | 24 | 1019.6 |
| 20260503182024 | 69 | 141 | 0.0 | 6.0 | 0.00 | 0.00 | 0.00 | 25 | 1019.6 |
| 20260503181538 | 68 | 126 | 2.0 | 6.0 | 0.00 | 0.00 | 0.00 | 24 | 1019.7 |
| 20260503181023 | 68 | 299 | 1.0 | 6.0 | 0.00 | 0.00 | 0.00 | 26 | 1019.6 |
| 20260503180526 | 70 | 113 | 2.0 | 6.0 | 0.00 | 0.00 | 0.00 | 21 | 1019.6 |
| 20260503180038 | 70 | 103 | 1.0 | 5.0 | 0.00 | 0.00 | 0.00 | 24 | 1019.6 |
| 20260503175524 | 70 | 262 | 1.0 | 5.0 | 0.00 | 0.00 | 0.00 | 21 | 1019.7 |
| 20260503175026 | 70 | 118 | 0.0 | 4.0 | 0.00 | 0.00 | 0.00 | 23 | 1019.8 |
| 20260503174537 | 69 | 99 | 1.0 | 4.0 | 0.00 | 0.00 | 0.00 | 25 | 1019.8 |
| 20260503174024 | 68 | 158 | 1.0 | 6.0 | 0.00 | 0.00 | 0.00 | 25 | 1019.9 |
| 20260503173524 | 67 | 107 | 1.0 | 10.0 | 0.00 | 0.00 | 0.00 | 26 | 1019.9 |
| 20260503173101 | 65 | 124 | 1.0 | 10.0 | 0.00 | 0.00 | 0.00 | 29 | 1019.9 |
| 20260503172522 | 66 | 91 | 3.0 | 7.0 | 0.00 | 0.00 | 0.00 | 33 | 1019.9 |
| 20260503172023 | 66 | 115 | 2.0 | 7.0 | 0.00 | 0.00 | 0.00 | 32 | 1020.1 |
| 20260503171545 | 66 | 136 | 2.0 | 7.0 | 0.00 | 0.00 | 0.00 | 33 | 1020.2 |
| 20260503171020 | 65 | 127 | 2.0 | 8.0 | 0.00 | 0.00 | 0.00 | 34 | 1020.2 |
| 20260503170525 | 65 | 111 | 2.0 | 9.0 | 0.00 | 0.00 | 0.00 | 34 | 1020.3 |
| 20260503150527 | 63 | 75 | 0.0 | 3.0 | 0.00 | 0.00 | 0.00 | 36 | 1021.3 |
| 20260503131025 | 56 | 37 | 0.0 | 1.0 | 0.00 | 0.00 | 0.00 | 52 | 1020.8 |
| 20260503130523 | 55 | 311 | 0.0 | 1.0 | 0.00 | 0.00 | 0.00 | 53 | 1020.8 |
| 20260503110524 | 40 | 0 | 0.0 | 0.0 | 0.00 | 0.00 | 0.00 | 75 | 1019.9 |
| 20260503081551 | 42 | 0 | 0.0 | 0.0 | 0.00 | 0.00 | 0.00 | 65 | 1017.9 |
| 20260503081024 | 42 | 0 | 0.0 | 0.0 | 0.00 | 0.00 | 0.00 | 64 | 1017.8 |
| 20260503080524 | 42 | 0 | 0.0 | 0.0 | 0.00 | 0.00 | 0.00 | 65 | 1017.8 |
| 20260503072524 | 43 | 0 | 0.0 | 0.0 | 0.00 | 0.00 | 0.00 | 62 | 1017.5 |
| 20260503072024 | 43 | 0 | 0.0 | 0.0 | 0.00 | 0.00 | 0.00 | 62 | 1017.4 |
| 20260503071541 | 43 | 0 | 0.0 | 0.0 | 0.00 | 0.00 | 0.00 | 63 | 1017.3 |
| 20260503071026 | 43 | 0 | 0.0 | 0.0 | 0.00 | 0.00 | 0.00 | 61 | 1017.3 |
| 20260503070524 | 43 | 0 | 0.0 | 0.0 | 0.00 | 0.00 | 0.00 | 61 | 1017.2 |
| 20260503055028 | 45 | 0 | 0.0 | 0.0 | 0.00 | 0.00 | 0.00 | 58 | 1017.2 |
| 20260503054539 | 45 | 0 | 0.0 | 0.0 | 0.00 | 0.00 | 0.00 | 58 | 1017.2 |
| 20260503054025 | 45 | 0 | 0.0 | 0.0 | 0.00 | 0.00 | 0.00 | 57 | 1017.1 |
| 20260503053524 | 45 | 0 | 0.0 | 0.0 | 0.00 | 0.00 | 0.00 | 57 | 1017.1 |
| 20260503053036 | 45 | 0 | 0.0 | 0.0 | 0.00 | 0.00 | 0.00 | 57 | 1017.3 |